sat.trackr.live / text

‹ back to catalog

GEESAT-1 07

NORAD 52791 · 2022-058G

PAYLOAD ACTIVE UNKNOWN

§ Identity

Operator
Country
PRC
Launch date
2022-06-02
Launch site
XICLF
Launch vehicle
Mass (kg)
RCS (m²)

External: N2YO · Heavens-Above · Gunter

§ Orbital elements

Epoch: 2026-05-25T03:43:46.661088Z

Period
97.21 min
Inclination
49.9896°
Eccentricity
0.0012450
Mean motion
14.81299379 rev/d
Perigee alt
616.5 km
Apogee alt
633.9 km
Semi-major
7,003.4 km
B*
2.1929e-4
RAAN
307.8697°
Arg perigee
7.8302°
Mean anomaly
352.2827°
Rev number
21,651

§ Raw data

GEESAT-1 071 52791U 22058G   26145.15540117  .00001507  00000+0  21929-3 0  99912 52791  49.9896 307.8697 0012450   7.8302 352.2827 14.81299379216510

JSON: /api/v1/satellites/52791 · /tle

For live sub-satellite position, see the globe view (requires WebGL).

§ Visibility from observer

Set your observer location to see the next 7 days of passes ≥ 10°. The values pass through the URL so the page stays shareable.

No JS? Fill the form by hand. The geolocation button needs JavaScript.